Find the Weather for any City, State or Zip Code, or Country:


Mobile Weather


Questions? Comments?
Contact Greg


Winchester Trails
Subdivision Website


New! Stream Houston NOAA Weather Radio Here!


Current Maps

Tropical (Hurricane)

Temperature

Heat Index

Windchill

Humidity

Radar

Dew Point

Wind

Visibility

Visible Satellite

Satellite

Fronts

Jet Stream

Flight Rules


Forecast Maps

Temperature Forecast

Maximum Temperature Forecast

Minimum Temperature Forecast

Dewpoint Forecast

Prevalent Weather

12Hr Probability of Precip.

Sky Cover


Health Maps

Houston Pollen/Mold Report

UV Forecast

Air Quality

Peak Air Quality Index


Miscellaneous

NOAA Aviation Weather

NWS Houston/Galveston

National Weather Service (main page)

National Hurricane Center

NOAA Historical Hurricane Tracks

Wunderground
Hurricane Archive


Harris Co. Flood Warning System

Harris Co. Storm Risk Calculator

U.S. Drought Monitor

TX Lake/Reservoir Data & Levels

Eric 'SciGuy' Berger Weather Blog

Dr. Jeff Masters Weather Blog

Houston Traffic

TxDOT Highway Conditions

Houston Electricity Outage Tracker

Houston Bayport Cruise Terminal Webcam

Galveston CruiseCam


This Station's Data

NOAA-Style Reports

Weather Detail

Daily Tabular Data


This Station's Position:
Lat. 29° 54' 14.18" N
Lon. 95° 34' 24.45" W
Elevation 112 ft (34.1 m)


Visit this station's partner in Cypress, 8sm west of here!


Weather Instruments:


Vantage Pro 2


Current Weather Conditions

This page refreshes automatically every 5 minutes and is best viewed at 1024x768 or higher resolution.
Powered by Ambient Weather Virtual Weather Station V15.00

Page last refreshed October 31, 2014 at 11:28 pm CDT (UTC -6)

Metric & Other Conversions for Current Observations
Current Temp14.4 °CHigh Temp24.4 °CLow Temp14.4 °C
Current Dew Point7.7 °CHeat Index15.7 °CWind Chill14.4 °C
Barometer1025.78 mbarBarometer769.4 mmHgBarometer14.88 psi
Density Altitude:  -328 ft (-100 m)Pressure Altitude:  -228 ft (-69.5 m)
Barometer readings for a Standard Day (59.0 °F/15.0 °C @ sea level):  29.92" Hg, 1013.25 mbar, 757.83 mmHg, 14.70 psi


 HARRIS COUNTY  -  Child Abduction Emergency Child Abduction Emergency  
 WALLER COUNTY  -  Child Abduction Emergency Child Abduction Emergency  
 FORT BEND COUNTY  -  Child Abduction Emergency Child Abduction Emergency  
 MONTGOMERY COUNTY  -  Child Abduction Emergency Child Abduction Emergency  
 LIBERTY COUNTY  -  Child Abduction Emergency Child Abduction Emergency  
 CHAMBERS COUNTY  -  Child Abduction Emergency Child Abduction Emergency  
 GALVESTON COUNTY  -  Child Abduction Emergency Child Abduction Emergency  
 BRAZORIA COUNTY  -  Child Abduction Emergency Child Abduction Emergency  


Local Radar Other Radar Graphics Local Satellite
Click for larger image WunderMap®

High Definition Radar (KHOU)

Regional Radar
Click for larger image
Radar & Satellite Graphics by Weather Underground




National Weather Service Forecast for: Jersey Village TX
Issued by: National Weather Service Houston, TX
Updated: 10:00 pm CDT Oct 31, 2014
 
Overnight

Clear
Clear
Saturday

Sunny
Sunny
Saturday
Night

Mostly Clear
Mostly
Clear
Sunday

Mostly Sunny
Mostly
Sunny
Sunday
Night

Mostly Cloudy
Mostly
Cloudy
Monday

Partly Sunny
Partly
Sunny
Monday
Night

Mostly Cloudy
Mostly
Cloudy
Tuesday

Chance T-Storms. Chance for Measurable Precipitation 30%
Chance
T-Storms
Tuesday
Night

Chance T-Storms. Chance for Measurable Precipitation 50%
Chance
T-Storms
Lo 45 °F Hi 67 °F Lo 41 °F Hi 72 °F Lo 58 °F Hi 79 °F Lo 65 °F Hi 81 °F Lo 64 °F

Hazardous Weather Outlook
 

Overnight
 
Clear, with a low around 45. Northeast wind around 10 mph.
Saturday
 
Sunny, with a high near 67. East wind 5 to 10 mph.
Saturday Night
 
Mostly clear, with a low around 41. East wind around 5 mph.
Sunday
 
Mostly sunny, with a high near 72. Southeast wind 5 to 10 mph.
Sunday Night
 
Mostly cloudy, with a low around 58. Southeast wind 5 to 10 mph.
Monday
 
Partly sunny, with a high near 79.
Monday Night
 
Mostly cloudy, with a low around 65.
Tuesday
 
A 30 percent chance of showers and thunderstorms. Mostly cloudy, with a high near 81.
Tuesday Night
 
A 50 percent chance of showers and thunderstorms. Cloudy, with a low around 64.
Wednesday
 
Showers and thunderstorms likely. Cloudy, with a high near 74. Chance of precipitation is 60%.
Wednesday Night
 
A 40 percent chance of showers and thunderstorms. Mostly cloudy, with a low around 58.
Thursday
 
A 30 percent chance of showers and thunderstorms. Mostly cloudy, with a high near 73.
Thursday Night
 
A 30 percent chance of showers and thunderstorms. Mostly cloudy, with a low around 57.
Friday
 
A 30 percent chance of showers and thunderstorms. Partly sunny, with a high near 75.

 

Forecast from NOAA-NWS for Jersey Village TX.

Follow this link for a current verbose area forecast discussion from the NWS.
Forecast Script by Saratoga Weather | Animated icons by Meteo Treviglio


Radar and Satellite Imagery


US Current Fronts w/Radar

Southcentral Infrared Satellite

US Jet Stream

Visible Satellite
The WunderMap is interactive - pan and zoom with your mouse.
WunderMap here requires Flash.
If accessing from an iOS device, you can download the Wundermap App from the App Store.
  
Click to go to WUnderground
Sea Surface Temp & Tropical System Map
Map Graphics by Weather Underground


Rainfall Information
Yesterday's Rain: 0 in
Last Rainfall:
Surrounding Area Rainfall Data
NOAA Avg. Rainfall For: Month to Date
(1971-2000)
Month to Date
(1981-2010)
Year to Date
(1971-2000)
Year to Date
(1981-2010)
Jersey Village: 4.29 in
(-1.67 in)
5.13 in
(-2.51 in)
41.88 in
(-6.31 in)
43.76 in
(-8.19 in)
Intercontinental (KIAH) 4.5 in 5.7 in 39.96 in 41.69 in
Hobby (KHOU) 5.26 in 5.99 in 45.64 in 46.3 in
NOTE:  The numbers in parenthesis under the Jersey Village data above indicate how far ahead (green) or behind (red) this station's rain total is compared to the NOAA 1971-2000 and 1981-2010 climate normals data for today's date (Oct 31).


Other Current Regional Observations (METARs)

(Ordered by straight-line statute mile distance from this weather station)

A Few More Observations/METARs of Interest to Greg


Weather Almanac

NOAA/NWS Daily Historical Weather Browser
Major SE Texas Weather Events

Records and Normals for Oct 31
Temperature Forecast Normal Record
High 64° 75° 90°
(1972)
Low 45°
51°
25°
(1993)
Highs & Lows Observed at This Station
  Today Yesterday For 10/2014 For 2014
High Temp 76.0°F at 3:13pm 79.9°F at 4:03pm 93.7°F on 10/2/14 97.6°F on 9/11/14
Low Temp 58.0°F at 11:27pm 58.3°F at 7:50am 50.5°F on 10/15/14 50.5°F on 10/15/14
High Dew Point 57.0°F at 3:28am 61.7°F at 12:14am 78.2°F on 10/2/14 79.4°F on 9/16/14
Low Dew Point 44.2°F at 4:27pm 50.4°F at 9:30am 44.2°F on 10/31/14 44.2°F on 10/31/14
High Humidity 87% at 5:56am 89% at 12:49am 95% on 10/1/14 95% on 9/7/14
Low Humidity 33% at 3:42pm 45% at 3:32pm 32% on 10/15/14 32% on 10/15/14
High Heat Index 75.6°F at 2:45pm 80.3°F at 4:03pm 109.5°F on 10/2/14 110.8°F on 9/10/14
High Barometer 30.17in at 11:14pm 30.04in at 10:44am 30.17in on 10/31/14 30.17in on 10/31/14
Low Barometer 29.98in at 12:00am 29.93in at 4:29pm 29.60in on 10/13/14 29.60in on 10/13/14
High Wind Speed 16mph at 3:04pm 6mph at 2:05pm 27mph on 10/6/14 27mph on 10/6/14
High Wind Gust 16mph at 3:04pm 7mph at 2:05pm 27mph on 10/6/14 27mph on 10/6/14
Low Wind Chill 58.0°F at 11:27pm 58.0°F at 8:00am 50.5°F on 10/15/14 50.5°F on 10/15/14

Sun & Moon
Sunrise:  7:36am Sunset:  6:37pm Moon Phase:
57%
Moonrise:  2:23pm Moonset:  12:56am
Star Chart...

 

Local Trend Graphs


MesoNet Local Weather Exchange® Network

Station ID

City 
(Click for Map Location)

Neighborhood 
(Click for History)
Last Update
(Date & Time)

Temp
 (°)

Dew
Point (°)
Humidity 
(%)
Wind 
(mph)
From
the
Gust
(mph) 
Pressure (in) Hourly
Rain (in)
KTXHOUST61 Houston Willow Point 10/31 23:15:03 59.2 17.0 19 0 North 0 30.18 0.00
KTXHOUST186 Houston Winchester Trails 10/31 23:15:28 58.4 45.0 62 0 NNE 1 30.29 0.00
KTXHOUST213 Houston 18220 Tomball Parkway 10/31 22:46:16 61.3 46.0 56 3 ESE 5 30.09 0.00
KTXHOUST178 Houston Schroeder Oaks Village 10/31 23:15:18 59.0 46.0 62 0 NNE 2 30.24 0.00
KTXHOUST291 Houston Steeplechase 10/31 23:15:22 57.2 47.0 69 0 North 2 30.15 0.00
KTXHOUST216 Houston Cutten Green 10/31 23:15:02 61.0 47.0 60 3 North 4 30.26 0.00
KTXHOUST232 Houston Rolling Fork 10/31 23:10:31 60.2 47.0 61 1 NNE 12 30.25 0.00
KTXHOUST349 Houston Champions Crossing 10/31 23:00:17 60.1 44.0 56 3 NNE 0 30.10 0.00
KTXHOUST218 Houston Woodland Trails West 10/31 23:15:27 61.9 48.0 60 1 North 3 30.26 0.00
KTXHOUST121 Houston Norchester, K5WH 10/31 22:55:27 58.6 42.0 54 2

NW 3 30.24 0.00
KTXHOUST170 Houston Champions Park 10/31 23:08:50 59.7 46.0 62 0 NW 0 30.25 0.00
KTXTEXAS12 Texas FM 1960 10/31 23:09:57 58.8 47.0 64 0 SW 0 30.24 0.00
KTXHOUST342 Houston Lakewood Forest at Cypresswood 10/31 23:15:28 57.9 42.0 55 0 NW 0 30.06 0.00
KTXHOUST233 Houston Woods of Wimbledon 10/31 23:15:27 61.7 45.0 55 0 NE 0 30.26 0.00
KTXHOUST352 Houston Vila Toscana 10/31 23:15:27 60.7 46.0 59 0 North 0 30.23 0.00
KTXHOUST260 Houston Villages at Lakepointe 10/31 23:15:29 59.0 43.0 55 5 NNE 5 30.34 0.00
KTXHOUST169 Houston Lakewood Forest 10/31 23:15:05 57.8 48.0 69 0 NNW 0 30.27 0.00
KTXHOUST261 Cypress Heatherwood Village 10/31 23:13:32 56.5 47.0 70 0 NE 1 29.73 0.00
KTXSPRIN88 Spring Champions Woods 10/31 23:11:48 55.4 46.0 72 0 East 0 29.98 0.00
KTXCYPRE11 Cypress Weiser Airpark 10/31 23:15:29 55.9 43.0 61 0 NNE 0 30.29 0.00
KTXCYPRE42 Cypress Great Oaks 10/31 23:15:28 52.3 47.0 82 0 NNE 0 30.27 0.00
KTXCYPRE79 Cypress Cypress Chase 10/31 23:15:13 57.0 45.0 65 0 NW 0 30.27 0.00
KTXHOUST271 Houston Middlegate Village 10/31 23:15:29 56.8 45.0 64 0 NNW 0 30.07 0.00
KTXSPRIN9 Spring Wimbledon 10/31 23:15:09 59.9 44.0 56 0 NNW 0 30.17 0.00
KTXTOMBA9 Tomball Spring Cypress/Eldridge 10/31 23:15:08 55.9 47.0 73 0 West 0 30.28 0.00
KTXCYPRE39 Cypress Longwood 10/31 23:15:16 54.1 47.0 78 0 NW 3 30.27 0.00
KTXHOUST29 Houston Concord Colony - K5EBQ 10/31 23:00:46 59.3 48.0 66 0 North 0 30.27 0.00
KTXSPRIN83 Spring Memorial NorthWest 10/31 23:15:02 56.1 46.0 70 0 North 0 29.89 0.00
KTXHOUST265 Houston Spring Shadows 10/31 23:04:34 61.3 47.0 59 3 NNE 6 30.27 0.00
KTXHOUST159 Houston Copper Village 10/31 23:15:22 57.5 47.0 69 1 North 4 30.19 0.00
KTXSPRIN5 Spring Memorial Northwest 10/31 23:15:21 56.5 45.0 65 0 North 0 30.20 0.00
KDWH Houston Hooks Official Station 10/31 22:53:00 56.0 44.0 64 0 North --- 30.28 ---
KIAH Houston Intercontinental Official Station 10/31 22:53:00 58.0 45.0 62 6 NNW --- 30.27 ---
KMCJ Houston / Dunn Helistop Official Station 10/31 22:55:00 63.0 43.0 48 13 North --- 30.24 ---
KSGR Houston Hull Official Station 10/31 22:53:00 57.0 46.0 67 5 North --- 30.27 ---
KTXCYPRE54 Cypress Canyon Lakes West 10/31 23:15:28 56.6 44.0 63 2 NNW 4 30.36 0.00
KTXHOUST197 Cypress Canyon Lakes West 10/31 23:15:26 58.1 47.0 67 0 SSE 3 30.19 0.00
KTXCYPRE65 Cypress Heritage Towne Lake 10/31 23:15:28 58.3 47.0 65 1 North 6 30.25 0.00
KTXCYPRE21 Cypress Bridgeland Community 10/31 23:15:30 56.5 47.0 71 1 NW 4 30.26 0.00
KTXCYPRE58 Cypress Lakeland Village 56.5 56.5 47.0 70 1 WNW 2 30.24 0.00